GFSNGP_700_spd_192.txt.gz
Wind_Speed
33 37 34 37 42 42 44 46 45 46 45 42 37 33 28 31 29 29 21 25 21 22 19 27 27 18 16 16 16 16 17 16 17 22 24 24 26 28 28 29 32 32 31 29
39 39 42 46 50 45 47 47 49 49 46 47 36 32 34 32 30 27 22 16 16 15 23 22 22 15 16 13 14 14 12 11 13 14 15 17 22 26 29 29 29 29 31 31
35 34 35 40 43 39 43 44 45 44 45 40 34 31 29 23 26 18 20 22 21 12 18 18 14 15 11 10 15 16 13 11 9 9 16 21 23 25 28 30 30 28 28 27
34 32 23 51 34 36 40 33 34 40 37 37 34 30 29 27 25 20 23 23 12 4 14 9 16 21 18 13 13 17 17 17 16 15 16 15 19 20 22 23 23 25 27 28
32 32 36 45 38 35 29 41 27 26 32 26 30 18 14 8 13 24 17 14 9 13 14 14 11 19 28 23 17 18 22 20 22 25 25 23 20 20 21 22 22 26 27 23
32 17 18 37 33 24 30 36 37 26 26 29 20 23 28 26 16 5 6 7 10 13 12 15 11 11 26 23 17 18 21 21 20 24 22 25 26 24 21 19 21 22 22 18
27 29 28 33 28 22 27 31 23 26 10 20 26 16 20 11 13 16 10 11 10 12 16 15 16 17 19 21 19 18 20 21 23 23 22 27 26 20 18 17 17 19 21 19
15 17 17 12 20 18 23 27 24 19 19 11 8 19 11 13 8 5 3 15 15 12 14 17 19 20 21 22 21 21 20 23 23 24 29 23 23 19 18 18 17 20 20 21
8 17 30 19 25 29 24 21 24 26 19 17 19 16 13 9 7 6 7 9 11 7 7 12 20 20 19 19 25 23 23 22 23 23 24 22 21 20 19 18 17 19 19 21
22 22 26 23 27 20 22 14 20 18 21 12 14 21 4 9 5 4 4 11 12 11 15 16 19 25 23 20 29 21 22 20 21 24 25 23 21 19 17 17 16 17 20 21
27 27 21 19 23 28 18 16 13 15 14 15 14 10 8 9 9 9 11 9 24 16 19 23 26 27 24 20 22 17 19 19 21 23 20 18 18 18 16 14 13 17 21 17
32 24 27 28 24 23 24 22 20 18 14 12 13 13 14 12 12 10 9 10 21 21 19 21 25 24 23 18 18 14 17 19 18 15 16 18 18 15 14 15 16 19 18 16
29 28 27 31 29 24 27 26 25 23 23 22 23 20 13 16 16 18 18 17 24 25 20 21 22 22 22 17 15 14 13 10 12 13 13 13 13 13 13 14 15 17 18 17
26 31 32 29 33 35 34 33 31 28 26 22 27 25 25 24 23 26 23 24 25 25 23 24 23 22 18 15 16 13 12 12 11 12 12 13 13 14 14 16 19 18 19 18
25 24 23 27 29 32 34 33 31 30 24 23 22 26 26 26 23 27 30 30 25 25 25 26 24 20 18 15 19 17 15 14 13 14 15 16 16 17 18 21 19 20 21 21
34 32 31 31 36 35 28 25 25 27 30 26 21 24 27 28 24 20 27 34 26 28 28 28 25 21 20 19 19 21 19 17 16 16 16 16 17 17 20 17 17 18 19 19
16 18 20 24 21 24 25 21 16 13 12 18 25 25 32 34 33 32 37 38 32 28 28 27 25 24 20 20 23 23 20 18 17 16 14 13 14 16 15 16 17 18 19 21
18 18 18 19 19 19 18 17 18 19 17 19 23 27 29 34 37 36 38 41 33 29 28 27 26 23 19 22 22 20 18 16 13 12 10 9 9 10 12 15 18 20 21 22
27 25 22 19 18 17 17 18 18 17 14 15 16 17 15 15 21 26 28 27 25 24 24 24 24 21 21 19 17 16 13 12 12 11 10 11 14 15 16 17 19 21 23 24
29 24 19 17 14 15 16 15 15 15 15 15 15 15 11 7 7 10 14 16 17 19 21 19 17 16 14 14 13 11 11 10 10 12 13 13 14 16 17 17 19 21 24 24
30 23 18 14 12 13 11 10 11 10 13 14 15 17 11 7 5 9 18 19 15 11 12 13 12 11 11 11 10 9 8 8 11 14 13 15 14 15 18 20 21 22 24 26
28 22 17 13 12 12 10 9 8 8 7 7 6 4 6 7 7 4 5 6 8 9 9 10 11 10 9 9 8 6 7 10 12 13 12 14 16 18 18 20 22 23 24 26
25 20 17 13 11 10 9 8 8 8 7 10 11 11 10 9 6 6 5 6 8 11 11 11 9 8 8 7 5 6 9 11 12 13 15 15 16 18 20 21 23 24 25 26
20 19 16 13 11 9 8 7 8 8 7 9 7 6 6 5 6 5 7 10 13 11 9 9 8 8 6 6 8 10 11 12 13 15 16 17 18 19 20 22 22 24 24 25
19 19 16 13 11 10 8 6 6 7 8 7 7 5 6 6 6 6 10 14 12 11 9 8 8 7 7 8 9 11 12 12 14 15 17 18 19 20 21 22 23 24 25 26
18 18 15 11 9 9 9 9 7 7 8 8 9 7 6 7 6 9 14 13 11 11 9 8 7 7 7 8 10 10 11 12 14 16 17 18 19 20 21 22 23 24 26 28
16 17 14 10 9 8 8 8 9 10 9 8 8 8 8 7 8 11 13 11 9 9 9 8 8 8 8 10 10 11 13 14 14 16 17 18 20 21 22 23 25 26 27 28

GFSNGP_700_spd_198.txt.gz
Wind_Speed
26 20 23 30 33 31 25 35 30 52 49 55 56 57 57 55 52 47 47 40 36 38 33 33 24 23 22 13 15 11 6 5 4 5 10 21 34 36 30 24 29 34 31 28
23 19 22 34 40 40 39 40 44 44 43 29 34 36 36 39 43 44 44 41 33 33 33 35 29 27 29 19 10 9 8 7 6 6 7 9 12 18 24 26 29 30 29 23
23 15 19 26 35 26 20 24 29 36 34 34 39 39 34 37 35 32 33 28 31 31 34 35 33 27 30 7 4 2 3 4 6 7 7 6 8 15 22 25 25 23 22 21
17 9 2 19 21 20 22 23 27 33 36 37 34 31 34 33 35 23 24 22 23 32 28 26 24 20 12 2 5 7 9 10 11 9 9 9 10 10 11 18 22 21 20 20
8 9 17 32 14 18 14 29 33 28 25 25 24 27 29 29 30 26 26 23 22 26 28 28 9 7 7 7 10 11 13 15 17 17 16 15 15 12 9 10 15 19 19 19
14 5 6 23 16 20 18 25 23 21 25 23 25 29 32 24 23 14 20 27 21 19 20 5 12 10 7 5 4 5 8 12 15 19 22 23 20 13 8 9 11 16 17 16
29 16 17 28 18 18 7 14 22 20 24 22 24 27 32 30 23 22 15 18 19 11 10 6 8 7 6 5 3 3 9 15 18 19 21 22 22 18 14 9 9 12 16 15
15 19 14 16 16 11 17 18 18 21 23 26 23 27 26 27 25 26 23 18 13 11 12 11 9 9 7 5 3 9 12 13 17 22 23 25 21 20 24 22 17 15 16 18
13 10 12 8 10 14 14 20 21 25 24 24 21 26 22 21 21 31 25 20 12 15 18 18 15 8 3 4 8 11 16 19 23 31 30 27 25 23 25 25 25 21 19 16
23 31 23 23 21 18 17 18 23 26 27 28 23 27 22 22 19 6 15 12 10 19 19 13 10 9 10 11 13 12 18 20 24 16 11 20 23 25 24 25 22 19 15 14
32 30 27 21 22 20 19 20 23 25 23 28 30 28 27 28 21 22 23 23 11 15 11 10 9 7 7 8 10 13 15 17 15 11 10 17 22 23 23 21 18 15 12 13
27 22 22 24 21 23 22 25 27 28 28 29 32 31 31 28 27 17 19 23 19 16 17 16 14 11 9 8 8 11 14 14 13 10 12 14 15 22 22 18 17 14 14 14
24 24 28 30 31 33 32 32 33 34 33 34 36 35 26 24 22 11 16 20 23 18 15 16 17 16 13 11 10 11 11 13 11 11 10 13 12 14 16 14 13 14 14 14
22 26 30 28 28 30 32 33 35 35 30 35 36 30 33 25 23 22 18 19 19 20 18 18 18 19 18 13 14 14 11 11 11 9 7 6 7 12 14 13 12 13 14 13
19 23 30 34 35 35 36 36 37 37 35 35 33 35 35 29 26 28 24 25 26 29 30 26 27 23 20 19 20 17 13 12 14 10 8 5 9 12 14 14 14 14 13 14
10 14 17 18 20 24 26 26 27 26 23 24 22 21 21 25 30 29 32 30 30 28 27 27 25 21 19 22 23 20 16 14 15 12 11 9 11 14 16 15 15 14 15 15
13 11 15 16 20 22 25 26 26 27 25 22 20 20 20 20 25 32 31 29 33 35 31 28 26 25 22 21 23 20 18 18 16 14 14 13 14 15 16 15 14 13 14 16
17 22 23 23 25 23 21 19 21 21 19 18 17 18 18 17 18 26 29 29 29 29 23 24 27 30 27 24 21 20 20 19 16 16 15 13 13 13 13 12 13 12 12 13
25 25 25 26 25 23 20 17 15 16 17 18 16 16 16 18 18 18 19 20 26 29 28 26 27 31 29 26 24 20 20 19 17 14 13 13 12 11 10 10 10 10 12 13
25 26 25 25 22 21 16 15 15 15 14 13 12 12 15 13 14 17 18 21 20 23 28 31 31 29 28 24 21 19 20 17 15 13 13 13 12 12 12 13 14 13 13 15
26 26 24 21 18 18 15 14 14 12 11 11 9 9 9 11 14 15 13 14 12 12 19 22 21 21 19 19 19 19 17 15 13 14 14 14 13 13 12 12 13 13 13 14
26 25 21 18 18 17 15 13 13 11 10 9 8 9 9 8 7 8 12 8 10 13 13 15 17 18 18 17 16 16 16 16 15 13 12 13 12 12 12 11 11 12 12 13
23 22 18 18 17 16 14 12 11 11 10 10 12 9 7 10 10 9 9 7 8 9 11 12 13 14 14 15 17 18 16 14 12 12 11 11 11 11 10 10 10 11 11 12
20 18 16 17 18 16 13 11 9 9 8 9 11 13 10 7 7 7 7 6 7 8 10 11 13 14 15 16 16 14 13 11 11 10 9 9 8 8 8 8 9 11 12 14
17 15 16 16 17 15 12 9 8 8 6 7 9 9 6 5 6 6 6 6 8 11 12 14 15 14 15 14 13 11 10 10 9 7 7 6 6 7 8 10 11 13 15 16
15 15 15 15 15 13 10 8 7 8 7 6 7 6 7 6 6 5 5 8 13 13 13 12 12 12 12 11 10 9 8 7 6 6 6 6 8 9 11 12 14 16 18 20
13 13 13 14 14 12 10 8 6 7 8 9 6 6 6 7 7 7 7 13 14 14 15 13 11 11 10 9 9 8 7 7 7 7 8 9 10 12 14 16 18 19 20 21

GFSNGP_700_spd_201.txt.gz
Wind_Speed
17 20 24 25 26 26 26 24 18 44 37 46 43 35 33 37 40 41 38 35 37 42 38 34 33 32 32 35 40 31 23 19 16 16 16 12 23 28 28 22 17 25 29 29
15 19 21 25 25 26 27 30 34 33 38 27 28 35 38 37 38 33 33 36 40 36 25 28 27 30 28 32 41 41 18 15 15 12 8 9 11 12 19 26 25 18 21 19
7 10 16 25 25 20 17 12 16 24 25 22 26 30 32 34 34 32 33 33 32 24 23 26 28 28 27 30 35 24 15 10 7 5 5 3 7 8 9 12 18 23 25 24
6 7 3 10 6 7 11 11 13 19 23 25 27 27 28 30 30 29 34 38 25 20 22 25 25 26 28 28 28 7 9 10 9 7 7 8 8 8 9 10 11 13 16 18
6 15 20 25 17 13 10 20 19 21 17 20 24 30 30 27 27 29 30 34 25 23 18 24 23 27 31 14 7 11 9 10 10 10 11 12 12 13 13 13 12 11 12 15
10 5 6 1 1 8 12 22 19 9 15 19 22 25 29 30 26 29 28 27 26 16 15 18 19 26 13 12 9 8 6 7 8 10 12 13 15 18 19 17 15 13 13 16
24 11 13 23 21 11 12 14 12 17 14 21 24 23 26 27 29 29 28 28 24 18 15 12 8 8 11 11 10 10 11 11 11 11 14 16 18 20 19 21 18 15 15 17
18 13 13 23 20 18 18 19 16 15 18 21 20 21 22 24 26 26 27 24 17 16 12 15 12 10 9 10 12 7 1 3 7 14 20 24 24 24 21 20 21 18 16 17
13 14 16 16 13 21 18 14 17 19 16 22 23 22 23 26 28 27 27 28 26 20 12 11 10 13 12 9 5 3 5 7 10 12 18 25 31 26 23 22 23 23 23 21
23 29 26 25 24 26 23 20 22 24 26 22 24 25 28 29 26 29 27 30 20 14 6 11 14 12 10 9 9 9 8 11 12 12 17 17 13 15 21 24 20 18 19 17
25 29 29 26 20 18 19 24 28 30 29 27 26 28 30 32 28 29 24 25 17 17 14 14 12 10 10 11 11 11 11 12 13 13 15 16 13 16 19 20 20 15 14 15
29 21 23 25 20 21 25 30 29 28 31 28 26 27 29 34 34 29 32 20 24 19 17 13 15 15 15 13 12 13 14 14 13 13 13 17 17 16 19 19 18 16 16 17
21 17 23 27 27 25 29 30 31 32 34 36 37 36 35 38 34 27 27 15 17 23 20 19 19 17 13 12 11 14 15 15 12 12 10 14 17 15 15 17 15 17 16 15
18 20 24 22 25 25 27 28 31 33 32 34 35 37 37 38 40 34 33 24 23 27 26 28 22 17 13 15 16 18 18 16 15 14 12 11 14 8 10 12 12 13 13 13
7 11 16 17 20 22 24 27 31 34 35 36 37 35 34 36 35 35 34 25 28 26 30 25 22 18 17 19 20 21 19 18 16 16 13 10 9 6 9 11 12 14 13 13
6 11 17 21 21 22 23 24 26 26 29 29 28 26 25 23 23 25 29 31 28 31 26 28 18 18 22 23 22 20 19 19 19 18 14 12 10 11 11 13 14 14 14 14
11 14 18 19 21 23 25 25 25 26 27 27 27 24 22 22 22 21 22 30 31 31 32 29 26 23 26 25 22 19 20 20 19 19 17 15 14 16 16 16 17 17 18 18
15 20 23 24 24 25 25 25 22 21 21 21 20 20 18 19 19 18 18 19 28 34 30 32 30 29 30 28 29 25 22 24 20 19 19 16 17 18 18 18 17 17 18 17
18 21 24 26 27 27 24 22 19 17 16 19 20 19 18 18 17 18 17 18 20 24 30 32 37 32 36 28 29 27 23 23 20 18 19 17 18 18 17 16 15 14 13 12
22 24 26 27 26 24 22 20 17 15 17 18 15 12 14 16 17 17 17 18 19 20 21 25 29 27 26 28 29 25 25 21 19 18 18 17 18 17 15 13 13 13 12 12
25 26 27 25 22 21 21 19 17 16 15 14 12 11 11 11 12 15 16 17 17 19 23 25 30 30 29 29 28 26 21 18 18 18 18 18 17 16 14 14 13 13 13 14
23 22 22 21 19 19 20 19 17 16 14 13 11 10 9 9 9 9 9 11 15 10 12 14 23 26 27 26 22 18 18 19 18 18 18 17 16 15 14 13 12 12 14 15
20 21 20 19 18 19 18 17 15 14 13 12 10 11 10 10 10 11 10 12 10 8 12 12 14 17 19 20 20 19 18 18 18 17 17 16 14 13 13 13 12 12 13 14
20 20 18 18 19 18 16 15 12 12 11 10 9 9 10 14 12 10 9 9 7 7 9 10 13 14 15 16 16 16 17 17 17 16 15 14 13 12 12 12 12 12 13 14
19 18 18 17 17 17 16 13 11 11 9 8 8 8 9 8 9 7 7 7 7 6 6 8 10 12 13 14 15 16 16 15 14 13 12 12 12 11 11 11 11 12 12 13
17 16 15 14 14 14 14 12 11 10 10 9 8 7 7 8 8 7 5 5 5 7 8 10 12 13 14 14 13 13 13 12 12 12 12 11 10 10 11 11 12 12 13 15
15 14 12 12 13 14 14 12 10 9 9 9 10 7 7 8 8 7 6 6 9 12 13 12 12 12 12 12 12 12 12 12 11 11 10 10 11 11 12 12 12 14 17 18

GFSNGP_700_spd_204.txt.gz
Wind_Speed
19 13 12 12 22 26 28 28 25 25 34 41 40 43 43 36 35 37 37 38 34 34 35 36 34 28 26 28 32 33 34 31 31 38 34 21 19 21 20 21 20 26 30 28
20 22 20 22 23 24 27 29 34 36 46 40 42 33 29 28 30 34 33 33 30 30 34 34 28 27 26 25 28 28 29 31 33 34 21 15 17 13 16 18 20 11 15 12
6 12 11 19 33 34 35 33 33 35 35 19 26 30 29 27 28 31 31 31 30 31 37 32 28 29 24 26 27 27 27 30 32 19 14 14 16 10 8 12 11 11 10 11
9 10 4 11 10 10 11 11 15 19 18 19 23 26 24 23 29 32 31 31 32 34 34 27 28 23 19 19 18 18 24 12 4 5 10 12 11 11 11 11 11 11 12 13
9 14 9 13 15 14 13 16 15 17 20 20 17 21 18 24 26 25 28 32 33 34 31 26 24 21 19 21 19 17 10 9 14 16 12 11 11 12 12 9 10 12 14 15
13 6 7 3 13 14 7 22 19 17 10 12 17 22 23 22 20 17 21 24 26 27 29 22 21 14 9 7 8 7 12 14 14 13 10 10 10 10 13 14 15 16 15 15
19 10 10 17 17 12 12 16 12 16 17 14 18 20 20 17 15 17 23 26 28 25 26 20 9 2 5 9 10 13 12 13 12 12 14 14 14 14 14 13 13 13 15 11
17 13 12 12 17 20 19 20 21 24 22 22 21 25 23 22 20 21 23 25 26 30 27 19 13 14 13 11 13 13 13 14 13 14 12 12 15 17 14 13 14 16 18 14
14 12 13 11 11 15 16 21 19 27 29 26 26 28 28 28 27 23 25 28 30 31 20 18 16 14 14 15 12 11 12 12 11 9 10 13 16 19 18 16 16 17 19 18
20 23 24 24 28 30 26 26 27 28 26 29 28 30 32 30 30 30 26 27 30 29 25 17 12 12 10 11 11 10 11 11 11 11 12 13 13 13 9 10 14 19 17 16
28 26 22 24 25 28 29 30 30 32 32 33 31 33 33 35 34 32 32 28 28 29 20 11 13 11 10 9 11 11 12 13 13 14 14 13 12 8 9 12 16 19 17 16
23 16 19 23 22 24 27 29 29 31 33 33 35 36 37 39 37 36 34 30 27 26 23 26 18 14 11 9 9 12 13 14 15 16 15 14 12 12 13 17 19 24 23 20
12 13 19 23 23 23 27 27 29 32 32 35 34 36 37 39 38 35 32 30 24 22 19 23 21 16 14 9 8 8 11 14 15 15 16 15 14 15 14 15 19 24 24 20
20 19 20 18 21 23 26 27 28 31 34 35 36 37 37 38 39 38 39 37 33 26 26 24 32 22 20 16 12 13 14 16 17 17 17 16 15 14 11 10 14 17 15 13
8 11 12 12 14 17 20 23 26 27 27 27 28 29 30 31 29 28 28 30 33 32 29 33 30 32 30 20 17 17 16 17 17 18 17 16 14 13 10 6 10 14 12 12
6 6 11 16 19 21 23 25 28 29 29 29 29 29 28 28 27 27 24 22 24 28 30 28 32 30 32 33 19 14 16 17 16 17 19 18 14 14 12 9 12 15 13 12
6 8 12 16 19 20 22 24 27 28 28 27 25 24 25 25 23 21 20 21 22 23 27 29 29 31 28 19 16 17 17 17 16 19 19 19 16 15 16 15 16 17 16 15
12 14 17 20 23 25 26 26 25 24 24 23 21 20 20 20 20 18 19 18 18 20 23 29 29 27 29 24 19 20 21 20 20 20 21 19 17 17 18 19 18 18 17 16
14 18 22 25 27 27 27 24 22 22 20 19 19 20 19 18 19 19 18 18 17 17 17 21 29 30 28 29 24 25 27 21 20 21 22 20 18 19 19 18 18 18 17 15
18 22 26 26 26 26 24 22 21 21 20 18 19 18 15 14 16 16 17 17 18 18 18 19 22 25 28 28 37 37 33 26 21 21 21 20 20 19 18 17 16 15 12 11
23 24 24 23 23 22 21 21 21 20 19 17 18 15 12 12 12 13 14 14 15 17 20 21 23 21 22 23 22 24 24 22 21 21 19 19 20 18 16 14 13 12 13 14
20 21 21 21 20 19 19 20 21 20 17 15 15 14 12 10 9 11 11 11 12 17 18 14 16 21 24 25 23 23 24 23 21 19 19 20 18 16 15 14 14 15 14 14
21 21 20 19 19 18 19 20 20 19 16 14 12 12 11 11 11 10 10 12 13 13 10 9 9 13 16 21 23 23 22 20 19 20 19 18 16 16 15 15 15 14 13 13
20 18 17 16 18 18 18 18 19 17 15 12 10 10 9 11 11 11 11 10 11 9 7 10 13 11 13 16 18 19 21 22 20 19 17 16 15 15 15 14 14 14 13 12
14 14 14 14 15 16 17 17 17 16 13 11 9 9 10 10 10 9 8 8 8 7 5 6 9 13 16 18 18 18 17 17 16 15 13 14 14 14 14 13 13 12 12 13
13 13 13 13 12 13 14 16 16 14 13 11 10 10 10 9 8 8 8 7 6 4 3 5 7 9 11 12 13 14 14 13 12 13 13 13 13 13 13 13 13 14 14 15
10 10 11 11 11 12 13 14 15 13 11 11 9 9 9 9 9 8 7 6 4 5 7 8 8 8 8 9 10 11 11 12 12 12 12 12 13 13 13 14 15 15 15 15

GFSNGP_700_spd_207.txt.gz
Wind_Speed
25 21 20 25 38 40 40 40 31 34 39 33 35 39 36 40 43 43 43 36 34 34 35 35 33 31 33 31 29 29 30 28 31 32 33 34 34 32 29 24 23 23 25 39
27 24 24 27 26 34 36 36 38 42 48 40 34 36 40 40 38 34 31 30 31 31 32 33 31 32 32 28 28 29 28 27 27 28 31 33 31 20 22 22 20 14 12 10
17 24 20 25 38 35 36 40 41 41 41 36 35 36 33 28 27 27 27 28 29 29 30 33 30 29 27 29 28 28 24 22 23 26 28 23 18 21 17 11 17 17 8 4
10 13 7 19 19 32 39 41 41 42 41 37 33 29 25 22 24 22 25 27 28 29 31 35 32 30 27 24 25 23 20 19 20 12 5 5 12 13 12 13 15 13 6 5
12 13 12 15 19 19 26 29 29 27 23 23 27 29 22 20 23 24 24 23 24 26 29 30 31 27 24 22 23 19 19 16 12 7 14 14 14 15 14 12 11 11 13 12
13 7 9 15 22 19 19 22 22 25 21 22 27 28 23 19 19 21 20 21 23 24 27 27 27 21 20 18 16 12 11 11 8 17 17 14 14 14 12 10 11 11 12 14
16 8 8 15 11 18 13 9 9 13 17 19 22 23 24 21 22 22 20 21 24 25 27 26 24 17 10 6 9 6 10 13 16 16 14 13 15 17 15 14 12 9 9 10
16 11 12 19 24 20 15 13 12 13 17 21 24 26 27 27 31 28 25 24 25 28 27 25 23 17 19 16 16 18 17 15 14 13 15 16 14 13 11 10 13 12 12 12
17 12 8 10 12 13 15 15 19 18 18 25 29 30 32 34 32 31 30 29 26 28 28 26 22 19 21 21 17 16 16 14 13 13 14 13 12 13 15 13 10 14 13 13
17 17 15 14 13 17 19 23 25 26 27 30 31 32 31 33 32 32 31 30 29 29 27 25 25 17 17 19 18 15 11 10 12 12 13 12 11 11 13 14 13 10 14 13
23 19 16 17 17 21 26 27 28 30 30 30 32 31 34 36 36 35 35 34 33 32 30 25 21 13 14 12 12 11 11 9 10 12 13 13 11 11 12 15 16 14 13 14
25 18 19 19 20 22 25 25 26 27 27 27 29 31 32 34 35 36 38 37 36 34 30 23 21 22 18 17 11 8 10 10 10 10 11 12 12 11 13 17 16 15 15 16
16 14 18 18 16 17 20 20 23 25 26 27 26 30 34 36 36 36 36 35 34 32 28 24 25 26 24 21 16 11 8 8 9 9 10 11 13 12 14 16 13 13 14 16
16 15 13 12 12 15 17 17 19 20 21 23 26 27 30 34 36 37 37 37 37 36 35 32 28 25 30 28 21 15 11 11 9 10 12 12 12 12 12 14 12 10 9 12
15 12 7 5 5 8 12 15 17 20 22 24 26 29 30 32 31 29 27 26 28 29 28 27 30 26 29 31 31 22 17 17 12 11 11 12 13 12 12 11 12 9 4 5
7 6 6 5 7 11 14 17 21 21 24 25 26 28 29 28 26 25 24 25 29 27 22 22 27 32 29 26 36 27 24 23 14 12 11 10 12 13 12 12 11 11 9 8
7 7 6 9 12 15 18 21 24 25 24 25 25 25 24 23 22 21 21 21 22 21 19 21 21 31 32 28 29 36 42 25 16 15 14 13 14 12 12 12 15 15 15 12
7 7 8 12 16 20 23 24 25 24 23 23 23 21 19 19 20 21 21 21 19 18 18 19 18 24 31 28 28 27 28 22 19 16 15 14 15 14 12 13 16 19 16 14
6 9 14 17 22 25 25 23 23 21 21 21 20 18 17 19 20 19 18 18 18 16 17 17 17 18 27 25 21 20 25 24 20 17 16 15 16 15 14 14 18 18 15 13
10 13 18 20 23 24 23 22 21 19 20 20 19 17 16 18 16 16 17 15 15 17 17 17 17 16 20 27 24 22 22 21 23 19 18 19 19 16 15 15 18 16 14 13
18 20 19 19 21 22 22 21 20 19 19 19 18 16 15 15 13 12 12 11 13 15 16 17 16 19 21 19 22 24 24 27 29 28 25 22 21 17 15 15 15 14 12 11
16 18 19 20 20 21 20 20 19 18 18 17 16 14 14 12 13 11 10 10 11 12 14 18 19 17 19 21 23 20 20 16 20 21 22 21 18 16 14 14 14 13 13 13
18 20 21 20 18 18 19 18 17 16 16 15 13 12 13 10 11 11 11 10 10 11 13 12 9 10 13 21 22 21 18 19 19 20 21 17 15 14 13 14 14 14 13 13
19 18 17 15 15 15 16 16 16 16 15 14 12 11 10 9 9 10 10 9 9 10 10 7 8 6 8 13 18 20 21 21 21 20 16 16 15 14 13 13 14 14 13 13
12 12 12 12 12 12 13 14 15 15 14 12 11 11 10 9 8 10 10 8 8 8 7 6 7 10 11 11 15 18 18 18 17 17 15 13 13 13 13 14 14 13 13 13
9 9 10 9 9 10 10 12 13 13 13 11 10 9 9 8 8 7 7 7 6 6 4 3 4 6 8 11 12 13 13 13 12 12 12 12 12 12 13 13 13 12 12 12
5 6 7 7 8 8 9 11 12 13 13 11 9 8 8 8 7 6 6 6 5 4 3 3 4 5 6 6 7 9 10 10 11 11 12 12 12 12 11 11 11 12 13 13

GFSNGP_700_spd_213.txt.gz
Wind_Speed
35 27 11 17 29 35 44 47 36 33 34 27 26 27 28 26 25 25 28 32 35 35 38 44 40 36 32 30 29 29 30 31 32 30 32 31 31 31 32 32 34 36 39 30
26 24 26 24 30 32 39 40 43 41 37 18 18 24 24 22 26 25 27 32 36 39 38 35 33 30 28 27 30 30 32 31 32 32 32 31 30 32 32 32 34 30 24 22
19 23 20 23 44 42 38 39 36 39 34 26 22 21 25 26 25 25 26 34 37 34 31 30 29 27 27 28 32 30 32 31 31 30 28 29 30 29 30 27 21 19 19 20
11 18 8 29 19 24 41 37 35 36 29 23 24 25 26 26 25 23 28 32 29 23 21 18 22 26 28 28 30 29 29 29 30 30 30 31 29 22 17 17 18 19 19 19
12 22 14 18 28 22 27 33 33 33 30 27 30 23 23 28 19 17 18 20 20 16 14 17 21 27 25 25 24 23 26 28 29 29 29 24 18 14 15 16 16 16 16 17
17 8 11 16 23 17 16 28 25 28 26 30 22 21 25 21 19 17 19 15 12 12 13 13 15 21 22 22 24 26 29 27 25 20 25 21 17 13 13 13 16 19 19 18
20 14 14 16 18 17 16 9 15 22 23 26 28 19 15 19 15 12 14 14 14 14 16 17 19 26 23 26 26 25 26 24 19 14 18 11 9 10 10 12 16 17 15 15
19 16 17 24 18 18 17 18 14 14 21 24 22 24 28 24 21 17 15 15 16 17 19 19 17 28 26 27 27 24 24 22 24 20 16 14 14 11 11 15 15 16 13 14
27 20 16 24 18 27 23 22 18 17 20 19 19 18 20 24 23 19 16 15 16 16 18 19 19 23 26 25 28 26 23 23 26 25 19 18 16 12 13 14 15 15 12 12
27 32 23 21 19 20 21 20 19 18 16 18 18 17 16 16 16 16 16 16 16 19 20 21 22 23 26 30 27 26 23 28 23 23 18 23 17 13 13 14 14 15 14 12
26 22 29 26 20 21 20 17 18 18 17 17 15 14 14 15 16 16 17 16 17 19 21 22 22 24 24 28 27 25 23 22 19 19 20 21 19 15 14 14 15 14 14 14
30 32 28 24 25 22 22 21 17 17 17 16 13 12 13 15 16 16 16 17 18 20 22 23 23 25 24 25 27 24 24 23 21 22 22 20 20 16 15 15 15 15 14 13
24 26 18 19 23 20 19 17 18 16 14 13 13 14 16 18 19 21 23 23 25 27 29 30 31 31 30 30 31 25 26 24 23 21 19 17 17 18 17 16 15 15 15 13
19 21 25 24 24 21 20 18 15 13 12 12 13 15 16 18 20 23 25 26 29 30 29 30 30 28 26 26 30 30 29 25 25 21 20 18 18 19 19 17 14 14 14 13
23 18 17 16 18 17 16 15 13 11 11 13 14 15 18 20 24 25 28 28 26 27 27 28 27 25 27 27 27 26 29 28 27 25 22 19 18 18 18 17 15 14 14 13
19 17 17 20 17 16 15 13 11 10 12 14 15 18 22 23 23 24 25 26 27 25 23 24 24 23 25 25 26 28 28 27 29 27 24 20 17 16 15 14 13 14 15 13
24 23 22 20 19 17 14 12 10 11 13 15 18 21 22 24 23 23 23 24 24 22 21 23 22 23 23 23 24 23 25 32 29 29 25 26 23 17 15 13 12 15 15 14
20 20 20 20 19 16 12 10 9 11 13 16 18 20 21 21 21 22 22 22 22 22 22 22 23 23 22 21 21 22 22 32 31 32 33 34 36 24 19 15 17 15 14 14
23 24 23 20 16 13 10 10 11 13 14 15 16 17 18 19 20 21 22 21 21 20 19 21 20 20 20 20 20 22 23 26 31 33 28 33 33 32 24 19 18 16 15 15
23 22 20 15 11 9 9 10 11 12 14 15 16 17 18 19 21 21 21 20 20 18 17 18 17 17 18 19 21 21 21 22 32 28 24 30 32 32 20 20 17 15 16 16
23 21 17 12 10 10 11 12 12 15 16 16 17 18 19 19 20 21 19 19 19 16 15 15 16 16 17 19 22 21 19 20 22 19 23 23 27 26 19 18 16 16 17 17
19 17 15 13 13 13 13 14 14 16 18 18 18 18 19 19 19 19 19 18 17 16 16 15 16 17 18 19 20 20 22 21 23 22 24 23 23 21 21 19 17 18 18 18
19 16 15 14 13 14 14 15 15 15 17 17 18 18 18 19 18 17 17 15 15 15 14 14 15 16 17 16 14 16 19 21 24 17 17 22 20 23 23 19 18 20 19 18
15 14 13 13 14 15 15 15 15 15 15 15 16 16 17 18 17 15 15 14 14 14 13 12 13 14 12 11 11 14 17 13 21 24 23 22 22 24 22 19 19 20 20 18
13 13 14 14 14 14 14 14 13 13 13 13 14 15 15 15 14 14 13 13 13 13 12 11 11 10 9 9 9 14 16 19 14 15 16 15 16 16 17 18 18 18 16 16
13 14 14 13 13 13 12 12 11 11 11 12 12 12 12 11 11 12 11 11 10 10 10 9 8 7 8 11 9 12 17 18 18 16 17 18 19 18 17 17 17 16 15 16
15 15 14 13 13 12 11 11 11 11 10 10 9 8 8 8 8 10 9 9 9 9 8 7 6 5 6 10 13 12 13 15 16 17 18 18 18 16 15 14 14 14 15 15

GFSNGP_700_spd_216.txt.gz
Wind_Speed
28 14 15 29 31 33 46 48 36 32 33 28 21 20 26 33 39 33 26 26 28 27 28 32 33 34 36 40 45 40 34 30 32 32 30 31 31 31 32 33 33 34 34 35
40 40 27 20 26 36 40 46 47 39 34 23 20 26 26 32 35 32 27 28 26 28 32 33 34 37 42 40 34 33 29 29 30 30 29 30 30 30 30 30 32 32 32 31
32 32 26 20 43 34 38 47 44 42 39 29 32 23 26 36 36 26 29 26 28 32 31 34 36 40 38 30 27 30 27 28 29 30 30 30 30 30 30 31 31 28 23 21
16 23 7 36 26 23 52 44 40 41 33 29 29 34 30 36 35 37 26 24 29 30 29 31 32 30 31 27 24 25 26 27 28 29 30 28 28 29 31 26 22 19 18 17
17 19 12 21 25 30 28 40 35 46 35 31 25 23 23 30 36 39 33 30 30 24 21 20 22 24 30 25 26 25 24 25 26 27 26 25 25 25 21 18 15 16 14 16
23 8 12 31 29 24 16 35 26 37 36 29 36 31 36 37 36 29 28 27 25 22 19 19 18 17 26 24 23 24 21 22 24 26 21 20 19 19 12 10 12 13 12 15
24 8 13 21 15 20 20 13 16 26 34 33 40 37 36 28 25 31 28 22 14 14 15 15 11 20 26 27 24 29 23 21 22 22 21 20 19 13 10 15 11 11 14 15
20 14 12 26 23 29 26 23 15 21 25 34 30 29 30 31 34 31 21 18 17 16 16 14 14 24 28 30 31 30 22 21 21 22 22 23 22 22 17 15 13 10 12 14
38 31 23 32 25 31 30 24 22 23 25 34 36 35 33 31 34 32 27 23 17 16 16 17 20 20 21 24 28 28 20 22 21 23 22 22 24 22 21 20 14 12 12 14
31 26 30 31 28 31 30 27 28 24 22 33 38 40 38 35 33 30 26 22 19 16 16 18 21 21 24 26 35 37 25 23 22 21 24 19 24 19 21 20 16 11 13 14
26 19 30 33 33 33 29 28 26 23 23 24 27 30 29 26 26 24 19 18 18 17 19 22 22 23 26 27 31 35 26 21 22 21 22 19 16 16 20 19 16 12 14 16
42 35 35 36 36 33 31 28 24 25 23 22 22 22 21 21 21 19 18 19 19 20 20 20 21 22 24 28 28 30 31 23 20 22 23 23 22 21 18 18 17 17 16 16
29 27 33 29 29 31 31 28 24 23 19 17 16 16 15 15 15 17 20 22 24 25 26 25 23 25 28 29 27 28 31 31 27 22 22 21 24 24 22 17 18 20 19 17
27 24 28 29 35 31 27 25 23 19 16 17 16 15 14 13 14 16 16 18 21 22 23 25 27 28 27 28 29 28 27 26 27 24 22 22 23 23 22 19 20 19 19 18
25 22 19 28 31 32 30 23 18 18 17 16 15 14 12 11 12 15 18 20 21 21 22 23 25 26 26 28 29 27 27 28 27 25 25 23 25 23 22 20 21 20 19 18
30 28 36 37 34 31 25 20 18 18 17 15 13 10 11 12 14 16 19 22 23 23 22 22 22 24 27 27 27 26 25 26 28 27 24 26 26 24 21 18 18 19 18 17
30 34 35 30 27 26 23 21 19 19 17 12 10 11 12 15 17 19 19 21 23 22 20 22 21 23 24 25 24 23 23 24 25 25 27 30 27 25 22 19 17 16 16 17
27 22 24 23 26 26 25 25 20 16 13 10 9 10 12 14 17 19 21 21 21 21 21 22 21 21 21 21 21 21 22 21 21 20 27 25 27 26 28 27 27 15 15 15
24 23 26 26 26 29 25 21 17 12 10 10 9 8 11 14 17 18 19 20 22 22 20 21 19 19 20 20 19 19 20 20 21 20 23 28 29 32 31 36 36 34 24 19
28 31 32 33 26 21 18 15 12 11 9 7 7 9 12 15 17 18 19 19 21 21 19 19 18 17 18 17 18 19 19 20 21 22 25 28 34 28 26 28 30 24 17 18
32 31 27 23 20 16 14 12 10 9 8 9 11 13 15 16 18 18 19 18 20 18 18 17 17 17 17 17 19 19 18 21 22 21 23 23 28 27 31 28 26 19 16 15
25 26 24 21 16 12 11 10 9 10 11 12 14 16 17 18 18 18 19 18 18 17 17 17 17 17 17 18 19 19 19 19 20 19 17 14 16 21 23 21 20 16 14 15
23 23 21 18 13 10 10 9 11 12 13 15 16 17 17 18 18 18 18 18 17 16 16 16 15 15 15 17 19 18 17 17 17 17 16 15 18 18 18 17 17 17 17 17
23 19 17 15 13 11 11 11 11 12 13 14 15 16 16 17 17 18 17 17 16 15 15 15 15 14 14 15 14 13 12 11 12 15 15 11 11 18 16 17 19 21 20 18
19 16 14 13 13 12 11 10 11 11 12 12 13 14 15 16 16 16 16 15 15 15 15 15 14 14 13 12 11 10 9 11 11 9 15 17 16 16 16 16 17 19 18 17
15 14 14 14 13 12 11 10 9 9 9 10 11 12 13 13 13 13 13 13 12 12 12 13 12 11 10 9 10 8 8 12 12 13 10 12 14 14 14 15 16 17 17 17
13 14 14 13 12 11 10 8 8 9 9 10 10 10 10 10 10 10 10 11 10 10 11 11 10 9 8 8 9 9 8 11 13 15 15 14 15 16 16 17 16 15 14 13